Home   Weather   Duluth   Past weeks

Flag for USA Past Weather in Duluth, Minnesota, USA — Yesterday and Last 2 Weeks

43 °F


Feels Like: 43 °F
Forecast: 34 / 49 °F
Wind: No wind

Location: Sky Harbor Airport

Current Time: Oct 21, 2016 at 10:02:02 AM

Latest Report: Oct 21, 2016 at 9:33 AM

Visibility: 10 mi

Pressure: 30.24 "Hg

Humidity: 76%

Dew Point: 36 °F

Location of DuluthLocation

Past Weather in Duluth — Graph


Duluth Temperature Yesterday

Maximum temperature yesterday: 48 °F (at 2:34 PM)
Minimum temperature yesterday: 39 °F (at 6:54 AM)
Average temperature yesterday: 45 °F

High & Low Weather Summary for the Past Weeks

High75 °F (Oct 10, 2:54 PM)100% (Oct 7, 12:14 AM)30.43 "Hg (Oct 7, 12:14 AM)
Low36 °F (Oct 9, 7:34 AM)36% (Oct 10, 3:14 PM)29.43 "Hg (Oct 17, 7:33 PM)
Average51 °F72%29.99 "Hg
* Reported Oct 6 8:14 AM — Oct 21 8:54 AM, Duluth, Weather by CustomWeather, © 2016

Note: Actual official high and low records may vary slightly from our data, if they occured in-between our weather recording intervals... More about our weather records


Duluth Weather History for the Previous 24 Hours

Scroll right to see more
Time TempWeatherWind HumidityBarometerVisibility
8:54 AM
Fri, Oct 21
39 °FOvercast.No wind87%30.24 "Hg10 mi
8:33 AM39 °FOvercast.No wind87%30.24 "Hg10 mi
8:14 AM39 °FOvercast.No wind87%30.24 "Hg10 mi
7:54 AM39 °FOvercast.No wind87%30.24 "Hg10 mi
7:34 AM39 °FOvercast.No wind87%30.24 "Hg10 mi
7:14 AM39 °FOvercast.No wind87%30.24 "Hg10 mi
6:53 AM39 °FOvercast.No wind87%30.25 "Hg10 mi
6:34 AM41 °FOvercast.No wind81%30.25 "Hg10 mi
6:14 AM39 °FOvercast.No wind87%30.26 "Hg10 mi
5:53 AM39 °FOvercast.No wind87%30.26 "Hg10 mi
5:34 AM39 °FOvercast.No wind87%30.26 "Hg10 mi
5:14 AM39 °FOvercast.No wind87%30.26 "Hg10 mi
4:54 AM39 °FPassing clouds.No wind87%30.26 "Hg10 mi
4:34 AM39 °FClear.No wind87%30.26 "Hg10 mi
4:14 AM39 °FPassing clouds.No wind87%30.25 "Hg10 mi
3:54 AM41 °FOvercast.No wind81%30.25 "Hg10 mi
3:34 AM41 °FOvercast.No wind81%30.26 "Hg10 mi
3:14 AM43 °FOvercast.No wind76%30.26 "Hg10 mi
2:53 AM43 °FOvercast.No wind76%30.27 "Hg10 mi
2:34 AM43 °FOvercast.No wind76%30.27 "Hg10 mi
2:13 AM43 °FOvercast.No wind71%30.27 "Hg10 mi
1:54 AM45 °FOvercast.No wind61%30.27 "Hg10 mi
1:34 AM45 °FOvercast.No wind66%30.28 "Hg10 mi
1:13 AM45 °FOvercast.No wind66%30.28 "Hg10 mi
12:54 AM45 °FOvercast.No wind66%30.28 "Hg10 mi
12:34 AM45 °FOvercast.No wind66%30.28 "Hg10 mi
12:13 AM45 °FOvercast.5 mph71%30.28 "Hg10 mi
11:54 PM
Thu, Oct 20
45 °FOvercast.8 mph66%30.28 "Hg10 mi
11:34 PM45 °FOvercast.7 mph71%30.28 "Hg10 mi
11:13 PM45 °FOvercast.7 mph71%30.28 "Hg10 mi
10:54 PM45 °FOvercast.10 mph66%30.28 "Hg10 mi
10:34 PM45 °FPassing clouds.9 mph71%30.28 "Hg10 mi
10:13 PM45 °FPassing clouds.No wind71%30.28 "Hg10 mi
9:54 PM46 °FOvercast.No wind66%30.29 "Hg10 mi
9:34 PM45 °FOvercast.No wind71%30.29 "Hg10 mi
9:14 PM45 °FOvercast.7 mph66%30.29 "Hg10 mi
8:54 PM46 °FOvercast.No wind62%30.29 "Hg10 mi
8:34 PM46 °FOvercast.5 mph66%30.29 "Hg10 mi
8:14 PM46 °FOvercast.7 mph62%30.29 "Hg10 mi
7:54 PM46 °FOvercast.9 mph57%30.29 "Hg10 mi
7:34 PM46 °FOvercast.No wind62%30.29 "Hg10 mi
7:14 PM46 °FMostly cloudy.9 mph62%30.29 "Hg10 mi
6:54 PM48 °FMostly cloudy.No wind54%30.29 "Hg10 mi
6:34 PM48 °FOvercast.No wind54%30.29 "Hg10 mi
5:53 PM48 °FOvercast.No wind58%30.29 "Hg10 mi
5:34 PM48 °FOvercast.No wind54%30.29 "Hg10 mi
4:54 PM48 °FOvercast.No wind50%30.29 "Hg10 mi
4:34 PM48 °FOvercast.No wind54%30.29 "Hg10 mi
4:13 PM48 °FOvercast.No wind58%30.29 "Hg10 mi
3:54 PM48 °FOvercast.No wind54%30.28 "Hg10 mi
3:34 PM48 °FOvercast.No wind54%30.28 "Hg10 mi
3:13 PM48 °FOvercast.No wind54%30.28 "Hg10 mi
2:54 PM48 °FMostly cloudy.No wind50%30.28 "Hg10 mi
2:34 PM48 °FMostly cloudy.No wind54%30.29 "Hg10 mi
2:13 PM46 °FMostly cloudy.No wind53%30.29 "Hg10 mi
1:54 PM46 °FPartly sunny.No wind57%30.30 "Hg10 mi
1:34 PM46 °FPartly sunny.No wind57%30.30 "Hg10 mi
1:13 PM46 °FOvercast.No wind57%30.31 "Hg10 mi
12:54 PM46 °FOvercast.No wind57%30.31 "Hg10 mi
12:34 PM46 °FOvercast.No wind57%30.32 "Hg10 mi
12:14 PM46 °FOvercast.No wind57%30.32 "Hg10 mi
11:53 AM46 °FPartly sunny.No wind53%30.32 "Hg10 mi
11:34 AM46 °FScattered clouds.No wind53%30.32 "Hg10 mi
11:14 AM45 °FScattered clouds.No wind61%30.32 "Hg10 mi
10:53 AM45 °FSunny.No wind61%30.32 "Hg10 mi
10:34 AM43 °FSunny.No wind61%30.33 "Hg10 mi
10:14 AM43 °FSunny.No wind66%30.33 "Hg10 mi
Weather by CustomWeather, © 2016

See weather overviewHow to use our weather pages